Time,TemperatureF,DewpointF,PressureIn,WindDirection,WindDirectionDegrees,WindSpeedMPH,WindSpeedGustMPH,Humidity,HourlyPrecipIn,Conditions,Clouds,dailyrainin,SoftwareType,DateUTC
2013-08-30 00:00:00,61.2,60.3,29.93,SSE,160,2.0,2.0,97,0.00,,,0.00,Wunderground v.1.15,2013-08-30 04:00:00,
2013-08-30 00:05:00,61.2,60.3,29.93,SE,146,2.0,3.0,97,0.00,,,0.00,Wunderground v.1.15,2013-08-30 04:05:00,
2013-08-30 00:10:00,61.2,60.3,29.93,SSE,162,2.0,2.0,97,0.00,,,0.00,Wunderground v.1.15,2013-08-30 04:10:00,
2013-08-30 00:15:00,61.2,60.3,29.93,SSE,165,2.0,2.0,97,0.00,,,0.00,Wunderground v.1.15,2013-08-30 04:15:00,
2013-08-30 00:25:00,61.1,60.2,29.93,SSE,163,1.0,2.0,97,0.00,,,0.00,Wunderground v.1.15,2013-08-30 04:25:00,
2013-08-30 00:30:00,61.1,60.2,29.93,SE,143,1.0,1.0,97,0.00,,,0.00,Wunderground v.1.15,2013-08-30 04:30:00,
2013-08-30 00:35:00,61.1,60.2,29.93,SSE,156,1.0,2.0,97,0.00,,,0.00,Wunderground v.1.15,2013-08-30 04:35:00,
2013-08-30 00:40:00,61.1,60.2,29.92,South,184,1.0,1.0,97,0.00,,,0.00,Wunderground v.1.15,2013-08-30 04:40:00,
2013-08-30 00:50:00,61.1,60.2,29.92,SE,131,1.0,2.0,97,0.00,,,0.00,Wunderground v.1.15,2013-08-30 04:50:00,
2013-08-30 00:55:00,61.1,60.2,29.92,South,183,1.0,2.0,97,0.00,,,0.00,Wunderground v.1.15,2013-08-30 04:55:00,
2013-08-30 01:00:00,61.1,60.2,29.92,SSE,154,1.0,2.0,97,0.00,,,0.00,Wunderground v.1.15,2013-08-30 05:00:00,
2013-08-30 01:05:00,61.0,60.1,29.92,SSE,150,1.0,2.0,97,0.00,,,0.00,Wunderground v.1.15,2013-08-30 05:05:00,
2013-08-30 01:10:00,61.0,60.4,29.92,ESE,122,1.0,1.0,98,0.00,,,0.00,Wunderground v.1.15,2013-08-30 05:10:00,
2013-08-30 01:20:00,61.0,60.4,29.91,SE,131,1.0,1.0,98,0.00,,,0.00,Wunderground v.1.15,2013-08-30 05:20:00,
2013-08-30 01:25:00,61.0,60.4,29.91,SSE,154,0.0,2.0,98,0.00,,,0.00,Wunderground v.1.15,2013-08-30 05:25:00,
2013-08-30 01:30:00,61.0,60.1,29.91,SSE,154,0.0,2.0,97,0.00,,,0.00,Wunderground v.1.15,2013-08-30 05:30:00,
2013-08-30 01:40:00,61.0,60.1,29.91,SSE,160,0.0,2.0,97,0.00,,,0.00,Wunderground v.1.15,2013-08-30 05:40:00,
2013-08-30 01:45:00,61.0,60.4,29.91,SSE,160,0.0,2.0,98,0.00,,,0.00,Wunderground v.1.15,2013-08-30 05:45:00,
2013-08-30 01:55:00,61.0,60.4,29.90,SSE,160,0.0,2.0,98,0.00,,,0.00,Wunderground v.1.15,2013-08-30 05:55:00,
2013-08-30 02:00:00,61.0,60.4,29.90,SSE,160,1.0,1.0,98,0.00,,,0.00,Wunderground v.1.15,2013-08-30 06:00:00,
2013-08-30 02:05:00,60.9,60.3,29.90,SSE,160,0.0,2.0,98,0.00,,,0.00,Wunderground v.1.15,2013-08-30 06:05:00,
2013-08-30 02:10:00,60.9,60.3,29.90,SSE,160,0.0,2.0,98,0.00,,,0.00,Wunderground v.1.15,2013-08-30 06:10:00,
2013-08-30 02:15:00,60.9,60.3,29.89,SE,135,0.0,2.0,98,0.00,,,0.00,Wunderground v.1.15,2013-08-30 06:15:00,
2013-08-30 02:20:00,60.9,60.3,29.89,SE,135,0.0,2.0,98,0.00,,,0.00,Wunderground v.1.15,2013-08-30 06:20:00,
2013-08-30 02:30:00,60.9,60.3,29.89,SE,135,0.0,2.0,98,0.00,,,0.00,Wunderground v.1.15,2013-08-30 06:30:00,
2013-08-30 02:35:00,60.9,60.3,29.89,SE,135,0.0,2.0,98,0.00,,,0.00,Wunderground v.1.15,2013-08-30 06:35:00,
2013-08-30 02:40:00,60.9,60.3,29.89,SE,135,0.0,2.0,98,0.00,,,0.00,Wunderground v.1.15,2013-08-30 06:40:00,
2013-08-30 02:45:00,60.9,60.3,29.89,SE,135,0.0,2.0,98,0.00,,,0.00,Wunderground v.1.15,2013-08-30 06:45:00,
2013-08-30 02:50:00,60.9,60.3,29.89,SE,140,0.0,2.0,98,0.00,,,0.00,Wunderground v.1.15,2013-08-30 06:50:00,
2013-08-30 03:00:00,60.8,60.2,29.88,SE,143,1.0,1.0,98,0.00,,,0.00,Wunderground v.1.15,2013-08-30 07:00:00,
2013-08-30 03:05:00,60.8,60.2,29.88,SE,143,1.0,2.0,98,0.00,,,0.00,Wunderground v.1.15,2013-08-30 07:05:00,
2013-08-30 03:14:00,60.8,60.2,29.88,SE,143,0.0,2.0,98,0.00,,,0.00,Wunderground v.1.15,2013-08-30 07:14:00,
2013-08-30 03:20:00,60.8,60.2,29.88,SE,146,0.0,2.0,98,0.00,,,0.00,Wunderground v.1.15,2013-08-30 07:20:00,
2013-08-30 03:25:00,60.8,60.2,29.88,SSE,147,0.0,2.0,98,0.00,,,0.00,Wunderground v.1.15,2013-08-30 07:25:00,
2013-08-30 03:35:00,60.7,60.1,29.88,SSE,147,0.0,2.0,98,0.00,,,0.00,Wunderground v.1.15,2013-08-30 07:35:00,
2013-08-30 03:40:00,60.7,60.1,29.88,SSE,147,0.0,2.0,98,0.00,,,0.00,Wunderground v.1.15,2013-08-30 07:40:00,
2013-08-30 03:45:00,60.7,60.1,29.88,SSE,147,0.0,2.0,98,0.00,,,0.00,Wunderground v.1.15,2013-08-30 07:45:00,
2013-08-30 03:50:00,60.7,60.1,29.88,SSE,147,0.0,2.0,98,0.00,,,0.00,Wunderground v.1.15,2013-08-30 07:50:00,
2013-08-30 03:55:00,60.7,60.1,29.87,SSE,147,0.0,2.0,98,0.00,,,0.00,Wunderground v.1.15,2013-08-30 07:55:00,
2013-08-30 04:00:00,60.7,60.1,29.88,SSE,147,0.0,2.0,98,0.00,,,0.00,Wunderground v.1.15,2013-08-30 08:00:00,
2013-08-30 04:10:00,60.7,60.4,29.87,SSE,147,0.0,2.0,99,0.00,,,0.00,Wunderground v.1.15,2013-08-30 08:10:00,
2013-08-30 04:20:00,60.7,60.4,29.87,SSE,147,0.0,2.0,99,0.00,,,0.00,Wunderground v.1.15,2013-08-30 08:20:00,
2013-08-30 04:25:00,60.7,60.4,29.87,SSE,147,0.0,2.0,99,0.00,,,0.00,Wunderground v.1.15,2013-08-30 08:25:00,
2013-08-30 04:30:00,60.7,60.4,29.87,SSE,147,0.0,2.0,99,0.00,,,0.00,Wunderground v.1.15,2013-08-30 08:30:00,
2013-08-30 04:35:00,60.7,60.4,29.87,SSE,147,0.0,2.0,99,0.00,,,0.00,Wunderground v.1.15,2013-08-30 08:35:00,
2013-08-30 04:45:00,60.6,60.3,29.87,SSE,147,0.0,2.0,99,0.00,,,0.00,Wunderground v.1.15,2013-08-30 08:45:00,
2013-08-30 04:50:00,60.5,60.2,29.86,SSE,147,0.0,2.0,99,0.00,,,0.00,Wunderground v.1.15,2013-08-30 08:50:00,
2013-08-30 04:55:00,60.5,60.2,29.86,SSE,147,0.0,2.0,99,0.00,,,0.00,Wunderground v.1.15,2013-08-30 08:55:00,
2013-08-30 05:00:00,60.5,60.2,29.86,SSE,147,0.0,2.0,99,0.00,,,0.00,Wunderground v.1.15,2013-08-30 09:00:00,
2013-08-30 05:05:00,60.5,60.2,29.86,SSE,164,0.0,2.0,99,0.00,,,0.00,Wunderground v.1.15,2013-08-30 09:05:00,
2013-08-30 05:15:00,60.6,60.3,29.86,SSE,164,0.0,2.0,99,0.00,,,0.00,Wunderground v.1.15,2013-08-30 09:15:00,
2013-08-30 05:20:00,60.6,60.3,29.86,SSE,165,0.0,2.0,99,0.00,,,0.00,Wunderground v.1.15,2013-08-30 09:20:00,
2013-08-30 05:30:00,60.6,60.3,29.86,SSE,166,0.0,2.0,99,0.00,,,0.00,Wunderground v.1.15,2013-08-30 09:30:00,
2013-08-30 05:35:00,60.6,60.3,29.86,SSE,166,0.0,2.0,99,0.00,,,0.00,Wunderground v.1.15,2013-08-30 09:35:00,
2013-08-30 05:40:00,60.6,60.3,29.87,SSE,166,0.0,2.0,99,0.00,,,0.00,Wunderground v.1.15,2013-08-30 09:40:00,
2013-08-30 05:50:00,60.6,60.3,29.86,South,184,0.0,2.0,99,0.00,,,0.00,Wunderground v.1.15,2013-08-30 09:50:00,
2013-08-30 05:55:00,60.6,60.3,29.86,South,184,0.0,2.0,99,0.00,,,0.00,Wunderground v.1.15,2013-08-30 09:55:00,
2013-08-30 06:00:00,60.6,60.3,29.86,ESE,108,0.0,2.0,99,0.00,,,0.00,Wunderground v.1.15,2013-08-30 10:00:00,
2013-08-30 06:05:00,60.6,60.3,29.86,South,178,0.0,2.0,99,0.00,,,0.00,Wunderground v.1.15,2013-08-30 10:05:00,
2013-08-30 06:15:00,60.5,60.2,29.87,SSW,201,0.0,2.0,99,0.00,,,0.00,Wunderground v.1.15,2013-08-30 10:15:00,
2013-08-30 06:25:00,60.5,60.2,29.87,SSW,193,0.0,2.0,99,0.00,,,0.00,Wunderground v.1.15,2013-08-30 10:25:00,
2013-08-30 06:30:00,60.5,60.2,29.87,SSW,199,1.0,2.0,99,0.00,,,0.00,Wunderground v.1.15,2013-08-30 10:30:00,
2013-08-30 06:35:00,60.6,60.3,29.86,SE,137,1.0,2.0,99,0.00,,,0.00,Wunderground v.1.15,2013-08-30 10:35:00,
2013-08-30 06:40:00,60.6,60.3,29.86,South,188,0.0,2.0,99,0.00,,,0.00,Wunderground v.1.15,2013-08-30 10:40:00,
2013-08-30 06:45:00,60.6,60.3,29.86,SSW,199,1.0,2.0,99,0.00,,,0.00,Wunderground v.1.15,2013-08-30 10:45:00,
2013-08-30 06:55:00,60.6,60.3,29.87,SW,215,1.0,2.0,99,0.00,,,0.00,Wunderground v.1.15,2013-08-30 10:55:00,
2013-08-30 07:00:00,60.5,60.2,29.87,SW,219,1.0,1.0,99,0.00,,,0.00,Wunderground v.1.15,2013-08-30 11:00:00,
2013-08-30 07:10:00,60.5,60.2,29.87,South,186,1.0,1.0,99,0.00,,,0.00,Wunderground v.1.15,2013-08-30 11:10:00,
2013-08-30 07:15:00,60.6,60.3,29.87,SSE,158,0.0,2.0,99,0.00,,,0.00,Wunderground v.1.15,2013-08-30 11:15:00,
2013-08-30 07:20:00,60.6,60.6,29.87,SE,135,1.0,2.0,100,0.00,,,0.00,Wunderground v.1.15,2013-08-30 11:20:00,
2013-08-30 07:25:00,60.7,60.7,29.87,SE,135,1.0,2.0,100,0.00,,,0.00,Wunderground v.1.15,2013-08-30 11:25:00,
2013-08-30 07:35:00,60.8,60.8,29.87,South,172,0.0,2.0,100,0.00,,,0.00,Wunderground v.1.15,2013-08-30 11:35:00,
2013-08-30 07:45:00,60.9,60.9,29.87,SW,224,0.0,2.0,100,0.00,,,0.00,Wunderground v.1.15,2013-08-30 11:45:00,
2013-08-30 07:50:00,60.9,60.9,29.87,South,187,0.0,2.0,100,0.00,,,0.00,Wunderground v.1.15,2013-08-30 11:50:00,
2013-08-30 07:55:00,61.1,61.1,29.87,South,187,0.0,2.0,100,0.00,,,0.00,Wunderground v.1.15,2013-08-30 11:55:00,
2013-08-30 08:00:00,61.1,61.1,29.87,South,187,0.0,2.0,100,0.00,,,0.00,Wunderground v.1.15,2013-08-30 12:00:00,
2013-08-30 08:10:00,61.2,61.2,29.86,South,187,0.0,2.0,100,0.00,,,0.00,Wunderground v.1.15,2013-08-30 12:10:00,
2013-08-30 08:15:00,61.3,61.3,29.86,South,187,0.0,2.0,100,0.00,,,0.00,Wunderground v.1.15,2013-08-30 12:15:00,
2013-08-30 08:20:00,61.5,61.5,29.86,South,187,0.0,2.0,100,0.00,,,0.00,Wunderground v.1.15,2013-08-30 12:20:00,
2013-08-30 08:25:00,61.6,61.6,29.86,South,187,0.0,2.0,100,0.00,,,0.00,Wunderground v.1.15,2013-08-30 12:25:00,
2013-08-30 08:30:00,61.8,61.8,29.86,South,187,0.0,2.0,100,0.00,,,0.00,Wunderground v.1.15,2013-08-30 12:30:00,
2013-08-30 08:40:00,62.0,62.0,29.86,South,187,0.0,2.0,100,0.00,,,0.00,Wunderground v.1.15,2013-08-30 12:40:00,
2013-08-30 08:45:00,62.2,62.2,29.86,South,187,0.0,2.0,100,0.00,,,0.00,Wunderground v.1.15,2013-08-30 12:45:00,
2013-08-30 08:50:00,62.5,62.5,29.86,South,187,0.0,2.0,100,0.00,,,0.00,Wunderground v.1.15,2013-08-30 12:50:00,
2013-08-30 09:00:00,62.8,62.8,29.86,South,187,0.0,2.0,100,0.00,,,0.00,Wunderground v.1.15,2013-08-30 13:00:00,
2013-08-30 09:05:00,62.8,62.8,29.86,South,187,0.0,2.0,100,0.00,,,0.00,Wunderground v.1.15,2013-08-30 13:05:00,
2013-08-30 09:14:00,63.6,63.6,29.85,South,187,0.0,2.0,100,0.00,,,0.00,Wunderground v.1.15,2013-08-30 13:14:00,
2013-08-30 09:20:00,64.3,64.3,29.86,South,187,0.0,2.0,100,0.00,,,0.00,Wunderground v.1.15,2013-08-30 13:20:00,
2013-08-30 09:25:00,65.2,65.2,29.86,South,187,0.0,2.0,100,0.00,,,0.00,Wunderground v.1.15,2013-08-30 13:25:00,
2013-08-30 09:30:00,66.0,66.0,29.85,South,187,0.0,2.0,100,0.00,,,0.00,Wunderground v.1.15,2013-08-30 13:30:00,
2013-08-30 09:35:00,66.4,64.9,29.85,South,189,1.0,2.0,95,0.00,,,0.00,Wunderground v.1.15,2013-08-30 13:35:00,
2013-08-30 09:40:00,67.0,64.6,29.86,SSW,201,1.0,2.0,92,0.00,,,0.00,Wunderground v.1.15,2013-08-30 13:40:00,
2013-08-30 09:50:00,68.1,64.7,29.85,South,179,1.0,1.0,89,0.00,,,0.00,Wunderground v.1.15,2013-08-30 13:50:00,
2013-08-30 09:55:00,68.8,64.8,29.85,South,179,1.0,2.0,87,0.00,,,0.00,Wunderground v.1.15,2013-08-30 13:55:00,
2013-08-30 10:00:00,69.7,65.3,29.85,South,179,0.0,3.0,86,0.00,,,0.00,Wunderground v.1.15,2013-08-30 14:00:00,
2013-08-30 10:05:00,70.1,65.4,29.85,South,179,1.0,3.0,85,0.00,,,0.00,Wunderground v.1.15,2013-08-30 14:05:00,
2013-08-30 10:10:00,70.8,65.7,29.85,South,183,1.0,1.0,84,0.00,,,0.00,Wunderground v.1.15,2013-08-30 14:10:00,
2013-08-30 10:20:00,71.6,65.5,29.84,South,189,1.0,2.0,81,0.00,,,0.00,Wunderground v.1.15,2013-08-30 14:20:00,
2013-08-30 10:25:00,71.7,65.6,29.84,South,189,1.0,2.0,81,0.00,,,0.00,Wunderground v.1.15,2013-08-30 14:25:00,
2013-08-30 10:30:00,72.0,65.8,29.84,SW,235,0.0,2.0,81,0.00,,,0.00,Wunderground v.1.15,2013-08-30 14:30:00,
2013-08-30 10:35:00,72.4,65.5,29.84,South,184,1.0,2.0,79,0.00,,,0.00,Wunderground v.1.15,2013-08-30 14:35:00,
2013-08-30 10:40:00,72.9,66.0,29.84,South,190,0.0,2.0,79,0.00,,,0.00,Wunderground v.1.15,2013-08-30 14:40:00,
2013-08-30 10:45:00,73.4,66.1,29.84,South,190,0.0,2.0,78,0.00,,,0.00,Wunderground v.1.15,2013-08-30 14:45:00,
2013-08-30 10:55:00,74.0,66.0,29.83,SSW,201,1.0,2.0,76,0.00,,,0.00,Wunderground v.1.15,2013-08-30 14:55:00,
2013-08-30 11:00:00,74.2,66.1,29.83,SSW,193,1.0,1.0,76,0.00,,,0.00,Wunderground v.1.15,2013-08-30 15:00:00,
2013-08-30 11:05:00,74.8,66.3,29.83,South,184,1.0,2.0,75,0.00,,,0.00,Wunderground v.1.15,2013-08-30 15:05:00,
2013-08-30 11:10:00,75.5,65.8,29.83,South,184,0.0,2.0,72,0.00,,,0.00,Wunderground v.1.15,2013-08-30 15:10:00,
2013-08-30 11:15:00,75.9,66.2,29.83,SW,219,0.0,2.0,72,0.00,,,0.00,Wunderground v.1.15,2013-08-30 15:15:00,
2013-08-30 11:25:00,76.4,66.7,29.83,South,185,1.0,2.0,72,0.00,,,0.00,Wunderground v.1.15,2013-08-30 15:25:00,
2013-08-30 11:30:00,76.3,66.2,29.83,SSW,207,1.0,1.0,71,0.00,,,0.00,Wunderground v.1.15,2013-08-30 15:30:00,
2013-08-30 11:39:00,76.9,67.6,29.82,South,185,1.0,2.0,73,0.00,,,0.00,Wunderground v.1.15,2013-08-30 15:39:00,
2013-08-30 11:45:00,77.3,67.6,29.82,SE,137,1.0,2.0,72,0.00,,,0.00,Wunderground v.1.15,2013-08-30 15:45:00,
2013-08-30 11:50:00,77.6,66.6,29.82,South,187,1.0,4.0,69,0.00,,,0.00,Wunderground v.1.15,2013-08-30 15:50:00,
2013-08-30 12:00:00,77.7,67.1,29.81,SW,220,1.0,2.0,70,0.00,,,0.00,Wunderground v.1.15,2013-08-30 16:00:00,
2013-08-30 12:05:00,77.9,65.2,29.81,WSW,255,2.0,3.0,65,0.00,,,0.00,Wunderground v.1.15,2013-08-30 16:05:00,
2013-08-30 12:10:00,77.8,65.5,29.81,WSW,237,2.0,2.0,66,0.00,,,0.00,Wunderground v.1.15,2013-08-30 16:10:00,
2013-08-30 12:15:00,77.7,66.3,29.81,SW,220,2.0,7.0,68,0.00,,,0.00,Wunderground v.1.15,2013-08-30 16:15:00,
2013-08-30 12:20:00,77.5,66.9,29.81,SW,225,3.0,3.0,70,0.00,,,0.00,Wunderground v.1.15,2013-08-30 16:20:00,
2013-08-30 12:25:00,77.8,66.0,29.80,NW,318,3.0,3.0,67,0.00,,,0.00,Wunderground v.1.15,2013-08-30 16:25:00,
2013-08-30 12:35:00,78.5,66.6,29.80,WNW,285,2.0,3.0,67,0.00,,,0.00,Wunderground v.1.15,2013-08-30 16:35:00,
2013-08-30 12:40:00,78.5,65.3,29.80,West,261,3.0,3.0,64,0.00,,,0.00,Wunderground v.1.15,2013-08-30 16:40:00,
2013-08-30 12:45:00,78.5,64.4,29.80,WSW,244,3.0,3.0,62,0.00,,,0.00,Wunderground v.1.15,2013-08-30 16:45:00,
2013-08-30 12:50:00,79.2,65.5,29.79,WNW,293,2.0,2.0,63,0.00,,,0.00,Wunderground v.1.15,2013-08-30 16:50:00,
2013-08-30 12:55:00,79.6,67.7,29.79,SSW,204,2.0,4.0,67,0.00,,,0.00,Wunderground v.1.15,2013-08-30 16:55:00,
2013-08-30 13:00:00,79.7,65.1,29.79,SSE,152,2.0,2.0,61,0.00,,,0.00,Wunderground v.1.15,2013-08-30 17:00:00,
2013-08-30 13:05:00,80.2,66.0,29.79,SW,222,2.0,2.0,62,0.00,,,0.00,Wunderground v.1.15,2013-08-30 17:05:00,
2013-08-30 13:10:00,80.8,66.6,29.78,WSW,249,2.0,4.0,62,0.00,,,0.00,Wunderground v.1.15,2013-08-30 17:10:00,
2013-08-30 13:20:00,80.5,64.9,29.79,SW,228,3.0,5.0,59,0.00,,,0.00,Wunderground v.1.15,2013-08-30 17:20:00,
2013-08-30 13:25:00,80.4,66.2,29.78,SW,223,3.0,5.0,62,0.00,,,0.00,Wunderground v.1.15,2013-08-30 17:25:00,
2013-08-30 13:30:00,81.0,66.3,29.78,South,177,3.0,3.0,61,0.00,,,0.00,Wunderground v.1.15,2013-08-30 17:30:00,
2013-08-30 13:40:00,80.9,64.2,29.78,WSW,254,4.0,4.0,57,0.00,,,0.00,Wunderground v.1.15,2013-08-30 17:40:00,
2013-08-30 13:45:00,80.8,64.6,29.78,WNW,293,4.0,4.0,58,0.00,,,0.00,Wunderground v.1.15,2013-08-30 17:45:00,
2013-08-30 13:50:00,81.1,64.9,29.77,SSW,212,3.0,6.0,58,0.00,,,0.00,Wunderground v.1.15,2013-08-30 17:50:00,
2013-08-30 13:55:00,81.3,65.6,29.77,West,272,3.0,6.0,59,0.00,,,0.00,Wunderground v.1.15,2013-08-30 17:55:00,
2013-08-30 14:04:00,81.9,66.6,29.77,South,175,2.0,5.0,60,0.00,,,0.00,Wunderground v.1.15,2013-08-30 18:04:00,
2013-08-30 14:10:00,82.2,63.9,29.77,SW,214,3.0,4.0,54,0.00,,,0.00,Wunderground v.1.15,2013-08-30 18:10:00,
2013-08-30 14:15:00,82.4,64.1,29.76,SW,229,3.0,4.0,54,0.00,,,0.00,Wunderground v.1.15,2013-08-30 18:15:00,
2013-08-30 14:24:00,81.9,65.7,29.76,SW,226,3.0,5.0,58,0.00,,,0.00,Wunderground v.1.15,2013-08-30 18:24:00,
2013-08-30 14:30:00,81.5,64.8,29.76,West,261,4.0,4.0,57,0.00,,,0.00,Wunderground v.1.15,2013-08-30 18:30:00,
2013-08-30 14:35:00,81.5,64.3,29.76,WSW,256,5.0,6.0,56,0.00,,,0.00,Wunderground v.1.15,2013-08-30 18:35:00,
2013-08-30 14:40:00,81.5,64.3,29.76,West,266,5.0,5.0,56,0.00,,,0.00,Wunderground v.1.15,2013-08-30 18:40:00,
2013-08-30 14:45:00,81.5,64.8,29.76,WSW,239,4.0,9.0,57,0.00,,,0.00,Wunderground v.1.15,2013-08-30 18:45:00,
2013-08-30 14:50:00,81.8,64.6,29.75,SSW,195,4.0,7.0,56,0.00,,,0.00,Wunderground v.1.15,2013-08-30 18:50:00,
2013-08-30 14:55:00,82.1,64.8,29.75,SE,129,4.0,7.0,56,0.00,,,0.00,Wunderground v.1.15,2013-08-30 18:55:00,
2013-08-30 15:00:00,82.3,64.5,29.75,West,276,4.0,4.0,55,0.00,,,0.00,Wunderground v.1.15,2013-08-30 19:00:00,
2013-08-30 15:05:00,82.3,65.5,29.75,WSW,249,4.0,4.0,57,0.00,,,0.00,Wunderground v.1.15,2013-08-30 19:05:00,
2013-08-30 15:10:00,82.3,65.5,29.75,WNW,303,4.0,7.0,57,0.00,,,0.00,Wunderground v.1.15,2013-08-30 19:10:00,
2013-08-30 15:15:00,82.0,64.2,29.75,West,275,5.0,7.0,55,0.00,,,0.00,Wunderground v.1.15,2013-08-30 19:15:00,
2013-08-30 15:20:00,82.1,65.4,29.75,SW,234,5.0,8.0,57,0.00,,,0.00,Wunderground v.1.15,2013-08-30 19:20:00,
2013-08-30 15:25:00,82.0,64.8,29.75,West,268,5.0,8.0,56,0.00,,,0.00,Wunderground v.1.15,2013-08-30 19:25:00,
2013-08-30 15:35:00,82.1,64.8,29.74,SSE,166,5.0,8.0,56,0.00,,,0.00,Wunderground v.1.15,2013-08-30 19:35:00,
2013-08-30 15:40:00,82.2,66.0,29.75,WNW,287,4.0,8.0,58,0.00,,,0.00,Wunderground v.1.15,2013-08-30 19:40:00,
2013-08-30 15:45:00,81.8,65.6,29.74,SW,224,5.0,8.0,58,0.00,,,0.00,Wunderground v.1.15,2013-08-30 19:45:00,
2013-08-30 15:55:00,81.1,65.9,29.74,WSW,245,6.0,6.0,60,0.00,,,0.00,Wunderground v.1.15,2013-08-30 19:55:00,
2013-08-30 16:00:00,81.2,66.0,29.74,West,262,5.0,6.0,60,0.00,,,0.00,Wunderground v.1.15,2013-08-30 20:00:00,
2013-08-30 16:05:00,81.4,67.1,29.74,West,272,4.0,6.0,62,0.00,,,0.00,Wunderground v.1.15,2013-08-30 20:05:00,
2013-08-30 16:10:00,81.7,65.5,29.74,WSW,240,4.0,4.0,58,0.00,,,0.00,Wunderground v.1.15,2013-08-30 20:10:00,
2013-08-30 16:15:00,81.8,66.1,29.74,WNW,289,4.0,4.0,59,0.00,,,0.00,Wunderground v.1.15,2013-08-30 20:15:00,
2013-08-30 16:25:00,81.4,65.2,29.74,WSW,243,5.0,6.0,58,0.00,,,0.00,Wunderground v.1.15,2013-08-30 20:25:00,
2013-08-30 16:35:00,81.9,67.1,29.74,WSW,255,3.0,5.0,61,0.00,,,0.00,Wunderground v.1.15,2013-08-30 20:35:00,
2013-08-30 16:40:00,82.1,66.4,29.73,West,266,3.0,3.0,59,0.00,,,0.00,Wunderground v.1.15,2013-08-30 20:40:00,
2013-08-30 16:45:00,82.1,65.4,29.73,WSW,240,3.0,3.0,57,0.00,,,0.00,Wunderground v.1.15,2013-08-30 20:45:00,
2013-08-30 16:50:00,82.0,66.3,29.73,West,281,3.0,6.0,59,0.00,,,0.00,Wunderground v.1.15,2013-08-30 20:50:00,
2013-08-30 16:55:00,81.5,65.3,29.73,NNW,332,3.0,6.0,58,0.00,,,0.00,Wunderground v.1.15,2013-08-30 20:55:00,
2013-08-30 17:05:00,81.5,65.8,29.73,WNW,287,3.0,3.0,59,0.00,,,0.00,Wunderground v.1.15,2013-08-30 21:05:00,
2013-08-30 17:10:00,81.5,65.3,29.73,WNW,283,3.0,3.0,58,0.00,,,0.00,Wunderground v.1.15,2013-08-30 21:10:00,
2013-08-30 17:15:00,81.5,66.3,29.73,West,261,2.0,3.0,60,0.00,,,0.00,Wunderground v.1.15,2013-08-30 21:15:00,
2013-08-30 17:20:00,81.8,66.1,29.73,WNW,285,2.0,3.0,59,0.00,,,0.00,Wunderground v.1.15,2013-08-30 21:20:00,
2013-08-30 17:25:00,81.5,66.3,29.73,West,268,2.0,3.0,60,0.00,,,0.00,Wunderground v.1.15,2013-08-30 21:25:00,
2013-08-30 17:35:00,81.4,66.2,29.73,SW,225,2.0,2.0,60,0.00,,,0.00,Wunderground v.1.15,2013-08-30 21:35:00,
2013-08-30 17:40:00,81.6,66.4,29.73,SW,225,1.0,2.0,60,0.00,,,0.00,Wunderground v.1.15,2013-08-30 21:40:00,
2013-08-30 17:50:00,81.9,67.1,29.73,SW,226,1.0,2.0,61,0.00,,,0.00,Wunderground v.1.15,2013-08-30 21:50:00,
2013-08-30 17:55:00,81.9,67.6,29.73,SW,226,1.0,2.0,62,0.00,,,0.00,Wunderground v.1.15,2013-08-30 21:55:00,
2013-08-30 18:00:00,81.9,66.2,29.72,SW,224,1.0,2.0,59,0.00,,,0.00,Wunderground v.1.15,2013-08-30 22:00:00,
2013-08-30 18:10:00,81.1,67.3,29.72,SW,220,1.0,2.0,63,0.00,,,0.00,Wunderground v.1.15,2013-08-30 22:10:00,
2013-08-30 18:15:00,80.8,67.5,29.72,SW,214,1.0,2.0,64,0.00,,,0.00,Wunderground v.1.15,2013-08-30 22:15:00,
2013-08-30 18:20:00,80.1,67.3,29.72,SSW,196,1.0,2.0,65,0.00,,,0.00,Wunderground v.1.15,2013-08-30 22:20:00,
2013-08-30 18:25:00,79.3,67.0,29.72,South,190,2.0,2.0,66,0.00,,,0.00,Wunderground v.1.15,2013-08-30 22:25:00,
2013-08-30 18:30:00,78.7,67.2,29.72,SW,216,1.0,2.0,68,0.00,,,0.00,Wunderground v.1.15,2013-08-30 22:30:00,
2013-08-30 18:35:00,78.4,67.4,29.72,South,183,1.0,2.0,69,0.00,,,0.00,Wunderground v.1.15,2013-08-30 22:35:00,
2013-08-30 18:45:00,77.9,67.3,29.72,South,191,1.0,3.0,70,0.00,,,0.00,Wunderground v.1.15,2013-08-30 22:45:00,
2013-08-30 18:55:00,77.1,67.0,29.72,SW,226,2.0,4.0,71,0.00,,,0.00,Wunderground v.1.15,2013-08-30 22:55:00,
2013-08-30 19:00:00,76.6,66.5,29.72,SE,145,2.0,3.0,71,0.00,,,0.00,Wunderground v.1.15,2013-08-30 23:00:00,
2013-08-30 19:05:00,76.2,66.5,29.72,SE,135,2.0,3.0,72,0.00,,,0.00,Wunderground v.1.15,2013-08-30 23:05:00,
2013-08-30 19:10:00,75.7,66.4,29.72,South,172,2.0,2.0,73,0.00,,,0.00,Wunderground v.1.15,2013-08-30 23:10:00,
2013-08-30 19:20:00,75.1,66.2,29.72,SE,129,1.0,3.0,74,0.00,,,0.00,Wunderground v.1.15,2013-08-30 23:20:00,
2013-08-30 19:25:00,74.8,66.3,29.72,South,178,2.0,3.0,75,0.00,,,0.00,Wunderground v.1.15,2013-08-30 23:25:00,
2013-08-30 19:30:00,74.5,66.4,29.72,South,179,2.0,2.0,76,0.00,,,0.00,Wunderground v.1.15,2013-08-30 23:30:00,
2013-08-30 19:35:00,74.2,66.1,29.72,SSE,159,2.0,7.0,76,0.00,,,0.00,Wunderground v.1.15,2013-08-30 23:35:00,
2013-08-30 19:45:00,73.9,65.9,29.72,SSW,202,2.0,3.0,76,0.00,,,0.00,Wunderground v.1.15,2013-08-30 23:45:00,
2013-08-30 19:55:00,73.5,65.8,29.72,South,177,1.0,2.0,77,0.00,,,0.00,Wunderground v.1.15,2013-08-30 23:55:00,
2013-08-30 20:00:00,73.4,65.7,29.72,SE,145,1.0,3.0,77,0.00,,,0.00,Wunderground v.1.15,2013-08-31 00:00:00,
2013-08-30 20:05:00,73.3,65.7,29.72,SSW,207,1.0,3.0,77,0.00,,,0.00,Wunderground v.1.15,2013-08-31 00:05:00,
2013-08-30 20:10:00,73.2,65.9,29.72,SSW,202,2.0,2.0,78,0.00,,,0.00,Wunderground v.1.15,2013-08-31 00:10:00,
2013-08-30 20:15:00,73.1,65.8,29.72,SSW,203,2.0,2.0,78,0.00,,,0.00,Wunderground v.1.15,2013-08-31 00:15:00,
2013-08-30 20:25:00,72.8,65.9,29.72,SSW,211,2.0,3.0,79,0.00,,,0.00,Wunderground v.1.15,2013-08-31 00:25:00,
2013-08-30 20:35:00,72.8,65.9,29.72,SW,218,2.0,7.0,79,0.00,,,0.00,Wunderground v.1.15,2013-08-31 00:35:00,
2013-08-30 20:40:00,72.8,65.9,29.72,SW,219,2.0,4.0,79,0.00,,,0.00,Wunderground v.1.15,2013-08-31 00:40:00,
2013-08-30 20:45:00,72.9,65.6,29.73,SSW,199,2.0,4.0,78,0.00,,,0.00,Wunderground v.1.15,2013-08-31 00:45:00,
2013-08-30 20:50:00,72.9,65.6,29.73,SW,218,2.0,5.0,78,0.00,,,0.00,Wunderground v.1.15,2013-08-31 00:50:00,
2013-08-30 21:00:00,72.7,65.4,29.73,SSW,208,2.0,2.0,78,0.00,,,0.00,Wunderground v.1.15,2013-08-31 01:00:00,
2013-08-30 21:10:00,72.6,65.7,29.72,SSW,204,2.0,2.0,79,0.00,,,0.00,Wunderground v.1.15,2013-08-31 01:10:00,
2013-08-30 21:15:00,72.6,65.7,29.72,SSE,164,1.0,2.0,79,0.00,,,0.00,Wunderground v.1.15,2013-08-31 01:15:00,
2013-08-30 21:20:00,72.6,65.3,29.72,South,185,1.0,1.0,78,0.00,,,0.00,Wunderground v.1.15,2013-08-31 01:20:00,
2013-08-30 21:25:00,72.7,65.8,29.72,South,172,2.0,3.0,79,0.00,,,0.00,Wunderground v.1.15,2013-08-31 01:25:00,
2013-08-30 21:35:00,72.8,65.9,29.72,SSW,195,1.0,3.0,79,0.00,,,0.00,Wunderground v.1.15,2013-08-31 01:35:00,
2013-08-30 21:40:00,72.7,66.2,29.72,SSE,168,1.0,2.0,80,0.00,,,0.00,Wunderground v.1.15,2013-08-31 01:40:00,
2013-08-30 21:50:00,72.6,66.1,29.72,South,180,1.0,1.0,80,0.00,,,0.00,Wunderground v.1.15,2013-08-31 01:50:00,
2013-08-30 21:55:00,72.4,65.9,29.72,SSW,193,0.0,2.0,80,0.00,,,0.00,Wunderground v.1.15,2013-08-31 01:55:00,
2013-08-30 22:00:00,72.3,66.1,29.72,South,182,1.0,2.0,81,0.00,,,0.00,Wunderground v.1.15,2013-08-31 02:00:00,
2013-08-30 22:10:00,72.3,66.1,29.72,SSE,160,1.0,2.0,81,0.00,,,0.00,Wunderground v.1.15,2013-08-31 02:10:00,
2013-08-30 22:15:00,72.4,66.2,29.72,SE,143,1.0,2.0,81,0.00,,,0.00,Wunderground v.1.15,2013-08-31 02:15:00,
2013-08-30 22:20:00,72.4,66.2,29.72,SSW,193,1.0,2.0,81,0.00,,,0.00,Wunderground v.1.15,2013-08-31 02:20:00,
2013-08-30 22:25:00,72.3,66.1,29.72,SSW,203,1.0,2.0,81,0.00,,,0.00,Wunderground v.1.15,2013-08-31 02:25:00,
2013-08-30 22:30:00,72.3,66.1,29.72,SSW,203,1.0,2.0,81,0.00,,,0.00,Wunderground v.1.15,2013-08-31 02:30:00,
2013-08-30 22:35:00,72.0,66.2,29.72,SSW,203,1.0,2.0,82,0.00,,,0.00,Wunderground v.1.15,2013-08-31 02:35:00,
2013-08-30 22:45:00,71.6,66.2,29.72,South,183,1.0,2.0,83,0.00,,,0.00,Wunderground v.1.15,2013-08-31 02:45:00,
2013-08-30 22:55:00,71.9,66.5,29.72,SSE,151,1.0,2.0,83,0.00,,,0.00,Wunderground v.1.15,2013-08-31 02:55:00,
2013-08-30 23:00:00,71.8,66.0,29.72,SSE,168,1.0,3.0,82,0.00,,,0.00,Wunderground v.1.15,2013-08-31 03:00:00,
2013-08-30 23:05:00,71.9,66.1,29.72,SSW,211,1.0,4.0,82,0.00,,,0.00,Wunderground v.1.15,2013-08-31 03:05:00,
2013-08-30 23:10:00,72.0,66.2,29.72,SW,217,2.0,2.0,82,0.00,,,0.00,Wunderground v.1.15,2013-08-31 03:10:00,
2013-08-30 23:20:00,72.3,66.5,29.71,South,183,2.0,2.0,82,0.00,,,0.00,Wunderground v.1.15,2013-08-31 03:20:00,
2013-08-30 23:29:00,72.4,66.2,29.71,South,181,1.0,1.0,81,0.00,,,0.00,Wunderground v.1.15,2013-08-31 03:29:00,
2013-08-30 23:34:00,72.3,66.1,29.71,SE,137,1.0,3.0,81,0.00,,,0.00,Wunderground v.1.15,2013-08-31 03:34:00,
2013-08-30 23:40:00,72.2,66.4,29.71,SSE,150,1.0,1.0,82,0.00,,,0.00,Wunderground v.1.15,2013-08-31 03:40:00,
2013-08-30 23:45:00,72.1,66.3,29.71,South,172,1.0,2.0,82,0.00,,,0.00,Wunderground v.1.15,2013-08-31 03:45:00,
2013-08-30 23:55:00,71.7,65.9,29.70,ESE,121,1.0,3.0,82,0.00,,,0.00,Wunderground v.1.15,2013-08-31 03:55:00,